Year,Month,Day,Hour,Minute,Value (Times are PST for temperature in C)
2022,02,07,00,00,2.90
2022,02,07,00,01,2.90
2022,02,07,00,02,3.00
2022,02,07,00,03,3.00
2022,02,07,00,04,2.90
2022,02,07,00,05,2.90
2022,02,07,00,06,2.90
2022,02,07,00,07,2.90
2022,02,07,00,08,2.90
2022,02,07,00,09,3.00
2022,02,07,00,10,3.20
2022,02,07,00,11,3.30
2022,02,07,00,12,3.30
2022,02,07,00,13,3.20
2022,02,07,00,14,3.20
2022,02,07,00,15,3.20
2022,02,07,00,16,3.20
2022,02,07,00,17,3.30
2022,02,07,00,18,3.30
2022,02,07,00,19,3.40
2022,02,07,00,20,3.40
2022,02,07,00,21,3.60
2022,02,07,00,22,3.80
2022,02,07,00,23,3.90
2022,02,07,00,24,3.90
2022,02,07,00,25,3.90
2022,02,07,00,26,4.00
2022,02,07,00,27,4.10
2022,02,07,00,28,4.10
2022,02,07,00,29,3.90
2022,02,07,00,30,3.80
2022,02,07,00,31,3.70
2022,02,07,00,32,3.70
2022,02,07,00,33,3.70
2022,02,07,00,34,3.70
2022,02,07,00,35,3.70
2022,02,07,00,36,3.60
2022,02,07,00,37,3.60
2022,02,07,00,38,3.60
2022,02,07,00,39,3.60
2022,02,07,00,40,3.70
2022,02,07,00,41,3.70
2022,02,07,00,42,3.60
2022,02,07,00,43,3.60
2022,02,07,00,44,3.50
2022,02,07,00,45,3.50
2022,02,07,00,46,3.50
2022,02,07,00,47,3.60
2022,02,07,00,48,3.70
2022,02,07,00,49,3.70
2022,02,07,00,50,3.70
2022,02,07,00,51,3.80
2022,02,07,00,52,4.10
2022,02,07,00,53,4.40
2022,02,07,00,54,4.70
2022,02,07,00,55,4.80
2022,02,07,00,56,4.80
2022,02,07,00,57,4.90
2022,02,07,00,58,5.00
2022,02,07,00,59,5.10
2022,02,07,01,00,5.10
2022,02,07,01,01,5.00
2022,02,07,01,02,5.00
2022,02,07,01,03,4.90
2022,02,07,01,04,5.00
2022,02,07,01,05,5.10
2022,02,07,01,06,5.10
2022,02,07,01,07,5.20
2022,02,07,01,08,5.50
2022,02,07,01,09,5.60
2022,02,07,01,10,5.70
2022,02,07,01,11,5.80
2022,02,07,01,12,5.80
2022,02,07,01,13,5.90
2022,02,07,01,14,6.00
2022,02,07,01,15,6.10
2022,02,07,01,16,6.10
2022,02,07,01,17,6.20
2022,02,07,01,18,6.30
2022,02,07,01,19,6.30
2022,02,07,01,20,6.40
2022,02,07,01,21,6.40
2022,02,07,01,22,6.40
2022,02,07,01,23,6.40
2022,02,07,01,24,6.50
2022,02,07,01,25,6.60
2022,02,07,01,26,6.60
2022,02,07,01,27,6.60
2022,02,07,01,28,6.60
2022,02,07,01,29,6.50
2022,02,07,01,30,6.40
2022,02,07,01,31,6.40
2022,02,07,01,32,6.50
2022,02,07,01,33,6.60
2022,02,07,01,34,6.60
2022,02,07,01,35,6.60
2022,02,07,01,36,6.60
2022,02,07,01,37,6.60
2022,02,07,01,38,6.60
2022,02,07,01,39,6.60
2022,02,07,01,40,6.60
2022,02,07,01,41,6.60
2022,02,07,01,42,6.60
2022,02,07,01,43,6.50
2022,02,07,01,44,6.50
2022,02,07,01,45,6.50
2022,02,07,01,46,6.50
2022,02,07,01,47,6.50
2022,02,07,01,48,6.60
2022,02,07,01,49,6.60
2022,02,07,01,50,6.70
2022,02,07,01,51,6.70
2022,02,07,01,52,6.70
2022,02,07,01,53,6.70
2022,02,07,01,54,6.70
2022,02,07,01,55,6.70
2022,02,07,01,56,6.70
2022,02,07,01,57,6.80
2022,02,07,01,58,6.80
2022,02,07,01,59,6.80
2022,02,07,02,00,6.80
2022,02,07,02,01,6.80
2022,02,07,02,02,6.70
2022,02,07,02,03,6.70
2022,02,07,02,04,6.70
2022,02,07,02,05,6.70
2022,02,07,02,06,6.70
2022,02,07,02,07,6.70
2022,02,07,02,08,6.70
2022,02,07,02,09,6.70
2022,02,07,02,10,6.70
2022,02,07,02,11,6.70
2022,02,07,02,12,6.70
2022,02,07,02,13,6.60
2022,02,07,02,14,6.60
2022,02,07,02,15,6.60
2022,02,07,02,16,6.60
2022,02,07,02,17,6.60
2022,02,07,02,18,6.60
2022,02,07,02,19,6.60
2022,02,07,02,20,6.60
2022,02,07,02,21,6.60
2022,02,07,02,22,6.60
2022,02,07,02,23,6.60
2022,02,07,02,24,6.60
2022,02,07,02,25,6.60
2022,02,07,02,26,6.60
2022,02,07,02,27,6.60
2022,02,07,02,28,6.60
2022,02,07,02,29,6.60
2022,02,07,02,30,6.60
2022,02,07,02,31,6.60
2022,02,07,02,32,6.60
2022,02,07,02,33,6.70
2022,02,07,02,34,6.70
2022,02,07,02,35,6.70
2022,02,07,02,36,6.70
2022,02,07,02,37,6.70
2022,02,07,02,38,6.70
2022,02,07,02,39,6.70
2022,02,07,02,40,6.70
2022,02,07,02,41,6.70
2022,02,07,02,42,6.70
2022,02,07,02,43,6.70
2022,02,07,02,44,6.70
2022,02,07,02,45,6.70
2022,02,07,02,46,6.70
2022,02,07,02,47,6.70
2022,02,07,02,48,6.70
2022,02,07,02,49,6.70
2022,02,07,02,50,6.70
2022,02,07,02,51,6.70
2022,02,07,02,52,6.80
2022,02,07,02,53,6.80
2022,02,07,02,54,6.80
2022,02,07,02,55,6.80
2022,02,07,02,56,6.80
2022,02,07,02,57,6.80
2022,02,07,02,58,6.80
2022,02,07,02,59,6.90
2022,02,07,03,00,6.90
2022,02,07,03,01,6.90
2022,02,07,03,02,6.80
2022,02,07,03,03,6.80
2022,02,07,03,04,6.80
2022,02,07,03,05,6.80
2022,02,07,03,06,6.80
2022,02,07,03,07,6.80
2022,02,07,03,08,6.80
2022,02,07,03,09,6.80
2022,02,07,03,10,6.80
2022,02,07,03,11,6.80
2022,02,07,03,12,6.70
2022,02,07,03,13,6.70
2022,02,07,03,14,6.70
2022,02,07,03,15,6.70
2022,02,07,03,16,6.70
2022,02,07,03,17,6.70
2022,02,07,03,18,6.70
2022,02,07,03,19,6.70
2022,02,07,03,20,6.70
2022,02,07,03,21,6.70
2022,02,07,03,22,6.70
2022,02,07,03,23,6.70
2022,02,07,03,24,6.70
2022,02,07,03,25,6.70
2022,02,07,03,26,6.60
2022,02,07,03,27,6.60
2022,02,07,03,28,6.60
2022,02,07,03,29,6.60
2022,02,07,03,30,6.60
2022,02,07,03,31,6.60
2022,02,07,03,32,6.60
2022,02,07,03,33,6.60
2022,02,07,03,34,6.60
2022,02,07,03,35,6.60
2022,02,07,03,36,6.60
2022,02,07,03,37,6.60
2022,02,07,03,38,6.60
2022,02,07,03,39,6.60
2022,02,07,03,40,6.60
2022,02,07,03,41,6.60
2022,02,07,03,42,6.60
2022,02,07,03,43,6.60
2022,02,07,03,44,6.60
2022,02,07,03,45,6.60
2022,02,07,03,46,6.60
2022,02,07,03,47,6.60
2022,02,07,03,48,6.60
2022,02,07,03,49,6.60
2022,02,07,03,50,6.60
2022,02,07,03,51,6.60
2022,02,07,03,52,6.70
2022,02,07,03,53,6.70
2022,02,07,03,54,6.70
2022,02,07,03,55,6.70
2022,02,07,03,56,6.70
2022,02,07,03,57,6.70
2022,02,07,03,58,6.70
2022,02,07,03,59,6.70
2022,02,07,04,00,6.70
2022,02,07,04,01,6.70
2022,02,07,04,02,6.70
2022,02,07,04,03,6.70
2022,02,07,04,04,6.70
2022,02,07,04,05,6.70
2022,02,07,04,06,6.70
2022,02,07,04,07,6.70
2022,02,07,04,08,6.70
2022,02,07,04,09,6.70
2022,02,07,04,10,6.70
2022,02,07,04,11,6.70
2022,02,07,04,12,6.70
2022,02,07,04,13,6.70
2022,02,07,04,14,6.70
2022,02,07,04,15,6.70
2022,02,07,04,16,6.70
2022,02,07,04,17,6.70
2022,02,07,04,18,6.70
2022,02,07,04,19,6.70
2022,02,07,04,20,6.70
2022,02,07,04,21,6.70
2022,02,07,04,22,6.70
2022,02,07,04,23,6.70
2022,02,07,04,24,6.70
2022,02,07,04,25,6.70
2022,02,07,04,26,6.70
2022,02,07,04,27,6.70
2022,02,07,04,28,6.70
2022,02,07,04,29,6.70
2022,02,07,04,30,6.70
2022,02,07,04,31,6.70
2022,02,07,04,32,6.70
2022,02,07,04,33,6.70
2022,02,07,04,34,6.70
2022,02,07,04,35,6.70
2022,02,07,04,36,6.70
2022,02,07,04,37,6.70
2022,02,07,04,38,6.70
2022,02,07,04,39,6.70
2022,02,07,04,40,6.70
2022,02,07,04,41,6.70
2022,02,07,04,42,6.80
2022,02,07,04,43,6.80
2022,02,07,04,44,6.80
2022,02,07,04,45,6.80
2022,02,07,04,46,6.80
2022,02,07,04,47,6.80
2022,02,07,04,48,6.80
2022,02,07,04,49,6.80
2022,02,07,04,50,6.80
2022,02,07,04,51,6.80
2022,02,07,04,52,6.80
2022,02,07,04,53,6.80
2022,02,07,04,54,6.80
2022,02,07,04,55,6.80
2022,02,07,04,56,6.80
2022,02,07,04,57,6.80
2022,02,07,04,58,6.80
2022,02,07,04,59,6.80
2022,02,07,05,00,6.80
2022,02,07,05,01,6.80
2022,02,07,05,02,6.80
2022,02,07,05,03,6.80
2022,02,07,05,04,6.80
2022,02,07,05,05,6.80
2022,02,07,05,06,6.80
2022,02,07,05,07,6.80
2022,02,07,05,08,6.80
2022,02,07,05,09,6.80
2022,02,07,05,10,6.80
2022,02,07,05,11,6.80
2022,02,07,05,12,6.80
2022,02,07,05,13,6.80
2022,02,07,05,14,6.80
2022,02,07,05,15,6.80
2022,02,07,05,16,6.80
2022,02,07,05,17,6.90
2022,02,07,05,18,6.90
2022,02,07,05,19,6.90
2022,02,07,05,20,6.90
2022,02,07,05,21,6.90
2022,02,07,05,22,7.00
2022,02,07,05,23,7.10
2022,02,07,05,24,7.10
2022,02,07,05,25,7.00
2022,02,07,05,26,7.00
2022,02,07,05,27,7.00
2022,02,07,05,28,7.00
2022,02,07,05,29,7.00
2022,02,07,05,30,7.00
2022,02,07,05,31,7.00
2022,02,07,05,32,7.00
2022,02,07,05,33,7.00
2022,02,07,05,34,7.00
2022,02,07,05,35,7.00
2022,02,07,08,24,7.30
2022,02,07,08,25,7.20
2022,02,07,08,26,7.20
2022,02,07,08,27,7.20
2022,02,07,08,28,7.10
2022,02,07,08,29,7.00
2022,02,07,08,30,6.90
2022,02,07,08,31,6.80
2022,02,07,08,32,6.70
2022,02,07,08,33,6.70
2022,02,07,08,34,6.80
2022,02,07,08,35,6.80
2022,02,07,08,36,6.70
2022,02,07,08,37,6.70
2022,02,07,08,38,6.70
2022,02,07,08,39,6.80
2022,02,07,08,40,6.80
2022,02,07,08,41,6.90
2022,02,07,08,42,7.10
2022,02,07,08,43,7.10
2022,02,07,08,44,7.00
2022,02,07,08,45,7.00
2022,02,07,08,46,7.00
2022,02,07,08,47,7.10
2022,02,07,08,48,7.20
2022,02,07,08,49,7.30
2022,02,07,08,50,7.40
2022,02,07,08,51,7.60
2022,02,07,08,52,7.80
2022,02,07,08,53,8.00
2022,02,07,08,54,8.20
2022,02,07,08,55,8.40
2022,02,07,08,56,8.50
2022,02,07,08,57,8.60
2022,02,07,08,58,8.80
2022,02,07,08,59,9.10
2022,02,07,09,00,9.30
2022,02,07,09,01,9.20
2022,02,07,09,02,9.20
2022,02,07,09,03,9.10
2022,02,07,09,04,9.10
2022,02,07,09,05,9.00
2022,02,07,09,06,9.00
2022,02,07,09,07,8.90
2022,02,07,09,08,8.90
2022,02,07,09,09,8.90
2022,02,07,09,10,8.90
2022,02,07,09,11,8.90
2022,02,07,09,12,8.90
2022,02,07,09,13,9.00
2022,02,07,09,14,9.00
2022,02,07,09,15,9.10
2022,02,07,09,16,9.20
2022,02,07,09,17,9.30
2022,02,07,09,18,9.30
2022,02,07,09,19,9.30
2022,02,07,09,20,9.40
2022,02,07,09,21,9.50
2022,02,07,09,22,9.70
2022,02,07,09,23,9.70
2022,02,07,09,24,9.70
2022,02,07,09,25,9.70
2022,02,07,09,26,9.70
2022,02,07,09,27,9.80
2022,02,07,09,28,9.80
2022,02,07,09,29,9.90
2022,02,07,09,30,10.00
2022,02,07,09,31,10.10
2022,02,07,09,32,10.20
2022,02,07,09,33,10.20
2022,02,07,09,34,10.30
2022,02,07,09,35,10.30
2022,02,07,09,36,10.30
2022,02,07,09,37,10.30
2022,02,07,09,38,10.30
2022,02,07,09,39,10.30
2022,02,07,09,40,10.30
2022,02,07,09,41,10.30
2022,02,07,09,42,10.20
2022,02,07,09,43,10.20
2022,02,07,09,44,10.20
2022,02,07,09,45,10.20
2022,02,07,09,46,10.20
2022,02,07,09,47,10.20
2022,02,07,09,48,10.30
2022,02,07,09,49,10.30
2022,02,07,09,50,10.30
2022,02,07,09,51,10.30
2022,02,07,09,52,10.40
2022,02,07,09,53,10.40
2022,02,07,09,54,10.50
2022,02,07,09,55,10.50
2022,02,07,09,56,10.50
2022,02,07,09,57,10.60
2022,02,07,09,58,10.60
2022,02,07,09,59,10.60
2022,02,07,10,00,10.60
2022,02,07,10,01,10.60
2022,02,07,10,02,10.70
2022,02,07,10,03,10.70
2022,02,07,10,04,10.70
2022,02,07,10,05,10.80
2022,02,07,10,06,10.80
2022,02,07,10,07,10.80
2022,02,07,10,08,10.70
2022,02,07,10,09,10.70
2022,02,07,10,10,10.60
2022,02,07,10,11,10.60
2022,02,07,10,12,10.60
2022,02,07,10,13,10.60
2022,02,07,10,14,10.60
2022,02,07,10,15,10.60
2022,02,07,10,16,10.50
2022,02,07,10,17,10.40
2022,02,07,10,18,10.30
2022,02,07,10,19,10.30
2022,02,07,10,20,10.30
2022,02,07,10,21,10.20
2022,02,07,10,22,10.20
2022,02,07,10,23,10.20
2022,02,07,10,24,10.20
2022,02,07,10,25,10.20
2022,02,07,10,26,10.20
2022,02,07,10,27,10.20
2022,02,07,10,28,10.20
2022,02,07,10,29,10.20
2022,02,07,10,30,10.20
2022,02,07,10,31,10.20
2022,02,07,10,32,10.20
2022,02,07,10,33,10.20
2022,02,07,10,34,10.20
2022,02,07,10,35,10.20
2022,02,07,10,36,10.20
2022,02,07,10,37,10.20
2022,02,07,10,38,10.20
2022,02,07,10,39,10.20
2022,02,07,10,40,10.30
2022,02,07,10,41,10.30
2022,02,07,10,42,10.30
2022,02,07,10,43,10.30
2022,02,07,10,44,10.30
2022,02,07,10,45,10.30
2022,02,07,10,46,10.30
2022,02,07,10,47,10.40
2022,02,07,10,48,10.40
2022,02,07,10,49,10.40
2022,02,07,10,50,10.40
2022,02,07,10,51,10.40
2022,02,07,10,52,10.50
2022,02,07,10,53,10.50
2022,02,07,10,54,10.40
2022,02,07,10,55,10.40
2022,02,07,10,56,10.40
2022,02,07,10,57,10.30
2022,02,07,10,58,10.30
2022,02,07,10,59,10.30
2022,02,07,11,00,10.30
2022,02,07,11,01,10.30
2022,02,07,11,02,10.30
2022,02,07,11,03,10.40
2022,02,07,11,04,10.40
2022,02,07,11,05,10.50
2022,02,07,11,06,10.50
2022,02,07,11,07,10.50
2022,02,07,11,08,10.60
2022,02,07,11,09,10.60
2022,02,07,11,10,10.70
2022,02,07,11,11,10.80
2022,02,07,11,12,10.80
2022,02,07,11,13,10.80
2022,02,07,11,14,10.70
2022,02,07,11,15,10.70
2022,02,07,11,16,10.60
2022,02,07,11,17,10.60
2022,02,07,11,18,10.70
2022,02,07,11,19,10.70
2022,02,07,11,20,10.70
2022,02,07,11,21,10.70
2022,02,07,11,22,10.70
2022,02,07,11,23,10.70
2022,02,07,11,24,10.70
2022,02,07,11,25,10.80
2022,02,07,11,26,10.80
2022,02,07,11,27,10.80
2022,02,07,11,28,10.90
2022,02,07,11,29,10.90
2022,02,07,11,30,11.00
2022,02,07,11,31,11.00
2022,02,07,11,32,10.90
2022,02,07,11,33,10.80
2022,02,07,11,34,10.80
2022,02,07,11,35,10.90
2022,02,07,11,36,10.90
2022,02,07,11,37,11.00
2022,02,07,11,38,11.10
2022,02,07,11,39,11.10
2022,02,07,11,40,11.20
2022,02,07,11,41,11.30
2022,02,07,11,42,11.20
2022,02,07,11,43,11.10
2022,02,07,11,44,11.00
2022,02,07,11,45,10.90
2022,02,07,11,46,10.90
2022,02,07,11,47,11.00
2022,02,07,11,48,11.00
2022,02,07,11,49,11.10
2022,02,07,11,50,11.20
2022,02,07,11,51,11.20
2022,02,07,11,52,11.30
2022,02,07,11,53,11.40
2022,02,07,11,54,11.40
2022,02,07,11,55,11.50
2022,02,07,11,56,11.60
2022,02,07,11,57,11.60
2022,02,07,11,58,11.60
2022,02,07,11,59,11.60
2022,02,07,12,00,11.60
2022,02,07,12,01,11.60
2022,02,07,12,02,11.70
2022,02,07,12,03,11.80
2022,02,07,12,04,11.80
2022,02,07,12,05,11.70
2022,02,07,12,06,11.70
2022,02,07,12,07,11.70
2022,02,07,12,08,11.70
2022,02,07,12,09,11.70
2022,02,07,12,10,11.70
2022,02,07,12,11,11.70
2022,02,07,12,12,11.70
2022,02,07,12,13,11.70
2022,02,07,12,14,11.70
2022,02,07,12,15,11.60
2022,02,07,12,16,11.60
2022,02,07,12,17,11.60
2022,02,07,12,18,11.60
2022,02,07,12,19,11.60
2022,02,07,12,20,11.60
2022,02,07,12,21,11.70
2022,02,07,12,22,11.70
2022,02,07,12,23,11.80
2022,02,07,12,24,11.90
2022,02,07,12,25,11.90
2022,02,07,12,26,11.90
2022,02,07,12,27,12.00
2022,02,07,12,28,12.00
2022,02,07,12,29,12.00
2022,02,07,12,30,12.00
2022,02,07,12,31,12.10
2022,02,07,12,32,12.00
2022,02,07,12,33,12.00
2022,02,07,12,34,12.00
2022,02,07,12,35,11.90
2022,02,07,12,36,11.90
2022,02,07,12,37,11.90
2022,02,07,12,38,12.00
2022,02,07,12,39,12.00
2022,02,07,12,40,11.90
2022,02,07,12,41,11.90
2022,02,07,12,42,11.80
2022,02,07,12,43,11.80
2022,02,07,12,44,11.80
2022,02,07,12,45,11.80
2022,02,07,12,46,11.80
2022,02,07,12,47,11.80
2022,02,07,12,48,11.80
2022,02,07,12,49,11.90
2022,02,07,12,50,11.90
2022,02,07,12,51,11.90
2022,02,07,12,52,11.80
2022,02,07,12,53,11.80
2022,02,07,12,54,11.70
2022,02,07,12,55,11.70
2022,02,07,12,56,11.70
2022,02,07,12,57,11.70
2022,02,07,12,58,11.80
2022,02,07,12,59,11.80
2022,02,07,13,00,11.80
2022,02,07,13,01,11.90
2022,02,07,13,02,11.90
2022,02,07,13,03,11.80
2022,02,07,13,04,11.80
2022,02,07,13,05,11.80
2022,02,07,13,06,11.90
2022,02,07,13,07,11.90
2022,02,07,13,08,11.90
2022,02,07,13,09,12.00
2022,02,07,13,10,12.00
2022,02,07,13,11,12.00
2022,02,07,13,12,12.10
2022,02,07,13,13,12.10
2022,02,07,13,14,12.00
2022,02,07,13,15,12.00
2022,02,07,13,16,12.00
2022,02,07,13,17,12.10
2022,02,07,13,18,12.10
2022,02,07,13,19,12.10
2022,02,07,13,20,12.20
2022,02,07,13,21,12.20
2022,02,07,13,22,12.30
2022,02,07,13,23,12.30
2022,02,07,13,24,12.40
2022,02,07,13,25,12.40
2022,02,07,13,26,12.50
2022,02,07,13,27,12.50
2022,02,07,13,28,12.40
2022,02,07,13,29,12.40
2022,02,07,13,30,12.30
2022,02,07,13,31,12.10
2022,02,07,13,32,12.10
2022,02,07,13,33,12.10
2022,02,07,13,34,12.10
2022,02,07,13,35,12.10
2022,02,07,13,36,12.20
2022,02,07,13,37,12.20
2022,02,07,13,38,12.30
2022,02,07,13,39,12.30
2022,02,07,13,40,12.30
2022,02,07,13,41,12.20
2022,02,07,13,42,12.30
2022,02,07,13,43,12.30
2022,02,07,13,44,12.30
2022,02,07,13,45,12.20
2022,02,07,13,46,12.30
2022,02,07,13,47,12.30
2022,02,07,13,48,12.10
2022,02,07,13,49,12.10
2022,02,07,13,50,12.10
2022,02,07,13,51,12.10
2022,02,07,13,52,12.10
2022,02,07,13,53,12.10
2022,02,07,13,54,12.10
2022,02,07,13,55,12.10
2022,02,07,13,56,12.10
2022,02,07,13,57,12.20
2022,02,07,13,58,12.20
2022,02,07,13,59,12.20
2022,02,07,14,00,12.10
2022,02,07,14,01,12.00
2022,02,07,14,02,11.90
2022,02,07,14,03,12.00
2022,02,07,14,04,12.00
2022,02,07,14,05,12.10
2022,02,07,14,06,12.10
2022,02,07,14,07,12.00
2022,02,07,14,08,12.00
2022,02,07,14,09,12.10
2022,02,07,14,10,12.10
2022,02,07,14,11,12.00
2022,02,07,14,12,12.00
2022,02,07,14,13,11.90
2022,02,07,14,14,11.90
2022,02,07,14,15,11.80
2022,02,07,14,16,11.80
2022,02,07,14,17,11.70
2022,02,07,14,18,11.70
2022,02,07,14,19,11.70
2022,02,07,14,20,11.60
2022,02,07,14,21,11.50
2022,02,07,14,22,11.40
2022,02,07,14,23,11.30
2022,02,07,14,24,11.20
2022,02,07,14,25,11.20
2022,02,07,14,26,11.10
2022,02,07,14,27,11.10
2022,02,07,14,28,11.10
2022,02,07,14,29,11.10
2022,02,07,14,30,11.00
2022,02,07,14,31,11.00
2022,02,07,14,32,11.10
2022,02,07,14,33,11.10
2022,02,07,14,34,11.00
2022,02,07,14,35,11.00
2022,02,07,14,36,11.00
2022,02,07,14,37,10.90
2022,02,07,14,38,10.90
2022,02,07,14,39,10.90
2022,02,07,14,40,10.80
2022,02,07,14,41,10.70
2022,02,07,14,42,10.60
2022,02,07,14,43,10.50
2022,02,07,14,44,10.50
2022,02,07,14,45,10.40
2022,02,07,14,46,10.50
2022,02,07,14,47,10.50
2022,02,07,14,48,10.60
2022,02,07,14,49,10.60
2022,02,07,14,50,10.50
2022,02,07,14,51,10.50
2022,02,07,14,52,10.50
2022,02,07,14,53,10.50
2022,02,07,14,54,10.50
2022,02,07,14,55,10.50
2022,02,07,14,56,10.50
2022,02,07,14,57,10.60
2022,02,07,14,58,10.60
2022,02,07,14,59,10.60
2022,02,07,15,00,10.60
2022,02,07,15,01,10.60
2022,02,07,15,02,10.70
2022,02,07,15,03,10.70
2022,02,07,15,04,10.70
2022,02,07,15,05,10.80
2022,02,07,15,06,10.80
2022,02,07,15,07,10.80
2022,02,07,15,08,10.80
2022,02,07,15,09,10.80
2022,02,07,15,10,10.70
2022,02,07,15,11,10.70
2022,02,07,15,12,10.70
2022,02,07,15,13,10.60
2022,02,07,15,14,10.60
2022,02,07,15,15,10.60
2022,02,07,15,16,10.50
2022,02,07,15,17,10.50
2022,02,07,15,18,10.60
2022,02,07,15,19,10.60
2022,02,07,15,20,10.70
2022,02,07,15,21,10.70
2022,02,07,15,22,10.70
2022,02,07,15,23,10.60
2022,02,07,15,24,10.50
2022,02,07,15,25,10.40
2022,02,07,15,26,10.30
2022,02,07,15,27,10.30
2022,02,07,15,28,10.20
2022,02,07,15,29,10.20
2022,02,07,15,30,10.20
2022,02,07,15,31,10.20
2022,02,07,15,32,10.30
2022,02,07,15,33,10.40
2022,02,07,15,34,10.40
2022,02,07,15,35,10.50
2022,02,07,15,36,10.50
2022,02,07,15,37,10.40
2022,02,07,15,38,10.40
2022,02,07,15,39,10.40
2022,02,07,15,40,10.40
2022,02,07,15,41,10.40
2022,02,07,15,42,10.40
2022,02,07,15,43,10.40
2022,02,07,15,44,10.40
2022,02,07,15,45,10.40
2022,02,07,15,46,10.40
2022,02,07,15,47,10.40
2022,02,07,15,48,10.40
2022,02,07,15,49,10.40
2022,02,07,15,50,10.30
2022,02,07,15,51,10.30
2022,02,07,15,52,10.20
2022,02,07,15,53,10.20
2022,02,07,15,54,10.10
2022,02,07,15,55,10.10
2022,02,07,15,56,10.10
2022,02,07,15,57,10.10
2022,02,07,15,58,10.00
2022,02,07,15,59,10.00
2022,02,07,16,00,10.10
2022,02,07,16,01,10.10
2022,02,07,16,02,10.10
2022,02,07,16,03,10.20
2022,02,07,16,04,10.30
2022,02,07,16,05,10.30
2022,02,07,16,06,10.20
2022,02,07,16,07,10.00
2022,02,07,16,08,9.90
2022,02,07,16,09,9.70
2022,02,07,16,10,9.60
2022,02,07,16,11,9.50
2022,02,07,16,12,9.50
2022,02,07,16,13,9.50
2022,02,07,16,14,9.50
2022,02,07,16,15,9.50
2022,02,07,16,16,9.40
2022,02,07,16,17,9.30
2022,02,07,16,18,9.30
2022,02,07,16,19,9.20
2022,02,07,16,20,9.20
2022,02,07,16,21,9.10
2022,02,07,16,22,9.00
2022,02,07,16,23,9.00
2022,02,07,16,24,9.00
2022,02,07,16,25,8.90
2022,02,07,16,26,8.90
2022,02,07,16,27,8.80
2022,02,07,16,28,8.80
2022,02,07,16,29,8.70
2022,02,07,16,30,8.70
2022,02,07,16,31,8.70
2022,02,07,16,32,8.70
2022,02,07,16,33,8.70
2022,02,07,16,34,8.70
2022,02,07,16,35,8.60
2022,02,07,16,36,8.60
2022,02,07,16,37,8.60
2022,02,07,16,38,8.60
2022,02,07,16,39,8.50
2022,02,07,16,40,8.50
2022,02,07,16,41,8.40
2022,02,07,16,42,8.40
2022,02,07,16,43,8.30
2022,02,07,16,44,8.30
2022,02,07,16,45,8.20
2022,02,07,16,46,8.10
2022,02,07,16,47,8.10
2022,02,07,16,48,8.10
2022,02,07,16,49,8.00
2022,02,07,16,50,8.00
2022,02,07,16,51,7.90
2022,02,07,16,52,8.00
2022,02,07,16,53,7.90
2022,02,07,16,54,7.90
2022,02,07,16,55,7.80
2022,02,07,16,56,7.70
2022,02,07,16,57,7.70
2022,02,07,16,58,7.60
2022,02,07,16,59,7.60
2022,02,07,17,00,7.50
2022,02,07,17,01,7.50
2022,02,07,17,02,7.60
2022,02,07,17,03,7.60
2022,02,07,17,04,7.60
2022,02,07,17,05,7.50
2022,02,07,17,06,7.50
2022,02,07,17,07,7.50
2022,02,07,17,08,7.50
2022,02,07,17,09,7.40
2022,02,07,17,10,7.40
2022,02,07,17,11,7.30
2022,02,07,17,12,7.20
2022,02,07,17,13,7.20
2022,02,07,17,14,7.10
2022,02,07,17,15,7.10
2022,02,07,17,16,7.00
2022,02,07,17,17,7.00
2022,02,07,17,18,6.90
2022,02,07,17,19,6.90
2022,02,07,17,20,6.80
2022,02,07,17,21,6.90
2022,02,07,17,22,6.90
2022,02,07,17,23,6.90
2022,02,07,17,24,6.90
2022,02,07,17,25,6.90
2022,02,07,17,26,6.80
2022,02,07,17,27,6.80
2022,02,07,17,28,6.80
2022,02,07,17,29,6.70
2022,02,07,17,30,6.70
2022,02,07,17,31,6.60
2022,02,07,17,32,6.60
2022,02,07,17,33,6.50
2022,02,07,17,34,6.50
2022,02,07,17,35,6.40
2022,02,07,17,36,6.40
2022,02,07,17,37,6.30
2022,02,07,17,38,6.30
2022,02,07,17,39,6.30
2022,02,07,17,40,6.20
2022,02,07,17,41,6.20
2022,02,07,17,42,6.20
2022,02,07,17,43,6.10
2022,02,07,17,44,6.10
2022,02,07,17,45,6.20
2022,02,07,17,46,6.20
2022,02,07,17,47,6.20
2022,02,07,17,48,6.20
2022,02,07,17,49,6.10
2022,02,07,17,50,6.10
2022,02,07,17,51,6.10
2022,02,07,17,52,6.00
2022,02,07,17,53,6.00
2022,02,07,17,54,5.90
2022,02,07,17,55,5.90
2022,02,07,17,56,5.80
2022,02,07,17,57,5.80
2022,02,07,17,58,5.80
2022,02,07,17,59,5.80
2022,02,07,18,00,5.70
2022,02,07,18,01,5.70
2022,02,07,18,02,5.70
2022,02,07,18,03,5.70
2022,02,07,18,04,5.80
2022,02,07,18,05,6.00
2022,02,07,18,06,6.10
2022,02,07,18,07,6.10
2022,02,07,18,08,6.00
2022,02,07,18,09,5.90
2022,02,07,18,10,5.90
2022,02,07,18,11,5.90
2022,02,07,18,12,5.90
2022,02,07,18,13,5.90
2022,02,07,18,14,6.00
2022,02,07,18,15,6.10
2022,02,07,18,16,6.10
2022,02,07,18,17,6.10
2022,02,07,18,18,6.10
2022,02,07,18,19,6.10
2022,02,07,18,20,6.10
2022,02,07,18,21,6.00
2022,02,07,18,22,6.00
2022,02,07,18,23,5.90
2022,02,07,18,24,5.90
2022,02,07,18,25,5.90
2022,02,07,18,26,5.90
2022,02,07,18,27,5.90
2022,02,07,18,28,5.90
2022,02,07,18,29,5.80
2022,02,07,18,30,5.70
2022,02,07,18,31,5.60
2022,02,07,18,32,5.60
2022,02,07,18,33,5.60
2022,02,07,18,34,5.60
2022,02,07,18,35,5.60
2022,02,07,18,36,5.60
2022,02,07,18,37,5.70
2022,02,07,18,38,5.70
2022,02,07,18,39,5.70
2022,02,07,18,40,5.70
2022,02,07,18,41,5.60
2022,02,07,18,42,5.60
2022,02,07,18,43,5.60
2022,02,07,18,44,5.60
2022,02,07,18,45,5.60
2022,02,07,18,46,5.60
2022,02,07,18,47,5.60
2022,02,07,18,48,5.70
2022,02,07,18,49,5.70
2022,02,07,18,50,5.70
2022,02,07,18,51,5.70
2022,02,07,18,52,5.60
2022,02,07,18,53,5.60
2022,02,07,18,54,5.60
2022,02,07,18,55,5.50
2022,02,07,18,56,5.60
2022,02,07,18,57,5.60
2022,02,07,18,58,5.50
2022,02,07,18,59,5.50
2022,02,07,19,00,5.50
2022,02,07,19,01,5.50
2022,02,07,19,02,5.50
2022,02,07,19,03,5.40
2022,02,07,19,04,5.40
2022,02,07,19,05,5.40
2022,02,07,19,06,5.30
2022,02,07,19,07,5.30
2022,02,07,19,08,5.30
2022,02,07,19,09,5.30
2022,02,07,19,10,5.30
2022,02,07,19,11,5.30
2022,02,07,19,12,5.30
2022,02,07,19,13,5.30
2022,02,07,19,14,5.30
2022,02,07,19,15,5.30
2022,02,07,19,16,5.30
2022,02,07,19,17,5.20
2022,02,07,19,18,5.20
2022,02,07,19,19,5.20
2022,02,07,19,20,5.30
2022,02,07,19,21,5.30
2022,02,07,19,22,5.40
2022,02,07,19,23,5.60
2022,02,07,19,24,5.80
2022,02,07,19,25,6.00
2022,02,07,19,26,6.10
2022,02,07,19,27,6.10
2022,02,07,19,28,6.00
2022,02,07,19,29,5.90
2022,02,07,19,30,5.80
2022,02,07,19,31,5.70
2022,02,07,19,32,5.70
2022,02,07,19,33,5.60
2022,02,07,19,34,5.60
2022,02,07,19,35,5.60
2022,02,07,19,36,5.50
2022,02,07,19,37,5.40
2022,02,07,19,38,5.40
2022,02,07,19,39,5.30
2022,02,07,19,40,5.30
2022,02,07,19,41,5.30
2022,02,07,19,42,5.30
2022,02,07,19,43,5.30
2022,02,07,19,44,5.30
2022,02,07,19,45,5.30
2022,02,07,19,46,5.40
2022,02,07,19,47,5.40
2022,02,07,19,48,5.30
2022,02,07,19,49,5.30
2022,02,07,19,50,5.30
2022,02,07,19,51,5.30
2022,02,07,19,52,5.20
2022,02,07,19,53,5.20
2022,02,07,19,54,5.20
2022,02,07,19,55,5.20
2022,02,07,19,56,5.10
2022,02,07,19,57,5.10
2022,02,07,19,58,5.20
2022,02,07,19,59,5.20
2022,02,07,20,00,5.10
2022,02,07,20,01,5.10
2022,02,07,20,02,5.40
2022,02,07,20,03,5.60
2022,02,07,20,04,5.70
2022,02,07,20,05,5.70
2022,02,07,20,06,5.70
2022,02,07,20,07,5.70
2022,02,07,20,08,5.60
2022,02,07,20,09,5.60
2022,02,07,20,10,5.70
2022,02,07,20,11,5.70
2022,02,07,20,12,5.70
2022,02,07,20,13,5.70
2022,02,07,20,14,5.60
2022,02,07,20,15,5.60
2022,02,07,20,16,5.50
2022,02,07,20,17,5.50
2022,02,07,20,18,5.40
2022,02,07,20,19,5.40
2022,02,07,20,20,5.40
2022,02,07,20,21,5.30
2022,02,07,20,22,5.10
2022,02,07,20,23,5.10
2022,02,07,20,24,5.00
2022,02,07,20,25,4.90
2022,02,07,20,26,4.90
2022,02,07,20,27,5.00
2022,02,07,20,28,5.10
2022,02,07,20,29,5.00
2022,02,07,20,30,5.00
2022,02,07,20,31,5.00
2022,02,07,20,32,4.90
2022,02,07,20,33,4.90
2022,02,07,20,34,5.00
2022,02,07,20,35,5.10
2022,02,07,20,36,5.10